| time (UTC) | temp C | wind direction | speed KPH | gust KPH | rain 1hr cm | rain 24hr cm | rain mn cm | humidity % | barometer mb |
| 20260507070019 | 12 | 179 | 1.6 | 4.8 | 0.00 | 0.00 | 0.00 | 92 | 1012.5 |
| 20260507065018 | 11 | 139 | 1.6 | 6.4 | 0.00 | 0.00 | 0.00 | 94 | 1012.5 |
| 20260507064018 | 11 | 66 | 1.6 | 4.8 | 0.00 | 0.00 | 0.00 | 94 | 1012.5 |
| 20260507063018 | 11 | 166 | 0.0 | 4.8 | 0.00 | 0.00 | 0.00 | 95 | 1012.5 |
| 20260507062018 | 11 | 152 | 1.6 | 4.8 | 0.00 | 0.00 | 0.00 | 92 | 1012.5 |
| 20260507061017 | 11 | 141 | 1.6 | 4.8 | 0.00 | 0.00 | 0.00 | 94 | 1012.5 |
| 20260507060017 | 11 | 169 | 0.0 | 3.2 | 0.00 | 0.00 | 0.00 | 94 | 1012.2 |
| 20260507055016 | 11 | 190 | 1.6 | 3.2 | 0.00 | 0.00 | 0.00 | 96 | 1012.1 |
| 20260507054016 | 11 | 217 | 0.0 | 1.6 | 0.00 | 0.00 | 0.00 | 96 | 1012.1 |
| 20260507053016 | 11 | 162 | 1.6 | 4.8 | 0.00 | 0.00 | 0.00 | 95 | 1012.1 |
| 20260507052015 | 11 | 155 | 1.6 | 4.8 | 0.00 | 0.00 | 0.00 | 94 | 1012.0 |
| 20260507051015 | 11 | 191 | 3.2 | 14.5 | 0.00 | 0.00 | 0.00 | 94 | 1011.9 |
| 20260507045014 | 11 | 148 | 3.2 | 12.9 | 0.00 | 0.00 | 0.00 | 94 | 1011.7 |
| 20260507044014 | 10 | 145 | 1.6 | 4.8 | 0.00 | 0.00 | 0.00 | 95 | 1011.5 |
| 20260507042013 | 10 | 149 | 3.2 | 9.7 | 0.00 | 0.00 | 0.00 | 95 | 1011.2 |
| 20260507041013 | 10 | 68 | 1.6 | 6.4 | 0.00 | 0.00 | 0.00 | 96 | 1011.2 |
| 20260507040013 | 10 | 165 | 3.2 | 6.4 | 0.00 | 0.00 | 0.00 | 96 | 1011.2 |
| 20260507034012 | 10 | 142 | 4.8 | 11.3 | 0.00 | 0.00 | 0.00 | 95 | 1011.1 |
| 20260507033011 | 10 | 173 | 3.2 | 8.0 | 0.00 | 0.00 | 0.00 | 96 | 1011.0 |
| 20260507032011 | 10 | 156 | 4.8 | 8.0 | 0.00 | 0.00 | 0.00 | 95 | 1011.0 |
| 20260507031010 | 10 | 136 | 3.2 | 9.7 | 0.00 | 0.00 | 0.00 | 96 | 1011.0 |
| 20260507030010 | 10 | 177 | 3.2 | 8.0 | 0.00 | 0.00 | 0.00 | 96 | 1011.0 |
| 20260507025010 | 10 | 153 | 3.2 | 8.0 | 0.00 | 0.00 | 0.00 | 96 | 1010.8 |
| 20260507024010 | 10 | 150 | 3.2 | 6.4 | 0.00 | 0.00 | 0.00 | 96 | 1010.7 |
| 20260507023009 | 10 | 176 | 3.2 | 9.7 | 0.00 | 0.00 | 0.00 | 96 | 1010.7 |
| 20260507022009 | 10 | 145 | 3.2 | 4.8 | 0.00 | 0.00 | 0.00 | 96 | 1010.8 |
| 20260507021008 | 10 | 159 | 4.8 | 8.0 | 0.00 | 0.00 | 0.00 | 96 | 1010.7 |
| 20260507020009 | 10 | 139 | 1.6 | 4.8 | 0.00 | 0.00 | 0.00 | 97 | 1010.7 |
| 20260507015008 | 10 | 155 | 4.8 | 12.9 | 0.00 | 0.00 | 0.00 | 96 | 1010.7 |
| 20260507014007 | 10 | 121 | 3.2 | 6.4 | 0.00 | 0.00 | 0.00 | 97 | 1010.6 |
| 20260507013007 | 10 | 134 | 4.8 | 8.0 | 0.00 | 0.00 | 0.00 | 97 | 1010.6 |
| 20260507011006 | 10 | 138 | 6.4 | 11.3 | 0.00 | 0.00 | 0.00 | 97 | 1010.4 |
| 20260507010006 | 10 | 87 | 4.8 | 9.7 | 0.00 | 0.00 | 0.00 | 98 | 1010.4 |
| 20260507004005 | 9 | 132 | 3.2 | 6.4 | 0.00 | 0.00 | 0.00 | 99 | 1010.3 |
| 20260507003005 | 9 | 65 | 1.6 | 4.8 | 0.00 | 0.00 | 0.00 | 99 | 1010.3 |
| 20260507002004 | 9 | 131 | 3.2 | 4.8 | 0.00 | 0.00 | 0.00 | 99 | 1010.3 |
| 20260507001004 | 10 | 65 | 3.2 | 4.8 | 0.00 | 0.00 | 0.00 | 98 | 1010.3 |
| 20260506235003 | 10 | 153 | 1.6 | 8.0 | 0.00 | 0.00 | 0.00 | 98 | 1010.4 |
| 20260506234003 | 10 | 153 | 4.8 | 11.3 | 0.00 | 0.00 | 0.00 | 97 | 1010.3 |
| 20260506233003 | 10 | 39 | 6.4 | 12.9 | 0.00 | 0.00 | 0.00 | 97 | 1010.2 |
| 20260506232002 | 10 | 139 | 4.8 | 12.9 | 0.00 | 0.00 | 0.97 | 98 | 1010.1 |
| 20260506230002 | 10 | 86 | 4.8 | 6.4 | 0.00 | 0.00 | 0.97 | 99 | 1010.1 |
| 20260506225001 | 10 | 145 | 4.8 | 11.3 | 0.00 | 0.00 | 0.97 | 98 | 1010.1 |
| 20260506224000 | 10 | 160 | 6.4 | 9.7 | 0.00 | 0.00 | 0.97 | 98 | 1010.1 |
| 20260506223000 | 10 | 150 | 4.8 | 9.7 | 0.00 | 0.00 | 0.97 | 98 | 1010.1 |
| 20260506222000 | 10 | 97 | 4.8 | 8.0 | 0.00 | 0.00 | 0.97 | 98 | 1010.0 |
| 20260506221000 | 10 | 186 | 3.2 | 8.0 | 0.00 | 0.00 | 0.97 | 98 | 1009.9 |
| 20260506214959 | 10 | 152 | 3.2 | 8.0 | 0.00 | 0.00 | 0.97 | 98 | 1009.8 |
| 20260506213959 | 10 | 146 | 4.8 | 9.7 | 0.00 | 0.00 | 0.97 | 98 | 1009.9 |
| 20260506212958 | 10 | 128 | 4.8 | 9.7 | 0.00 | 0.00 | 0.97 | 99 | 1009.8 |
| 20260506211958 | 10 | 152 | 3.2 | 8.0 | 0.00 | 0.00 | 0.97 | 99 | 1009.7 |
| 20260506210957 | 10 | 155 | 1.6 | 4.8 | 0.00 | 0.00 | 0.97 | 99 | 1009.7 |
| 20260506204957 | 11 | 141 | 1.6 | 3.2 | 0.00 | 0.00 | 0.97 | 99 | 1009.5 |
| 20260506202956 | 11 | 183 | 4.8 | 9.7 | 0.00 | 0.00 | 0.97 | 99 | 1009.5 |
| 20260506201956 | 11 | 207 | 6.4 | 12.9 | 0.00 | 0.00 | 0.97 | 99 | 1009.5 |
| 20260506195955 | 12 | 231 | 4.8 | 14.5 | 0.00 | 0.00 | 0.97 | 98 | 1009.4 |
| 20260506193954 | 12 | 203 | 4.8 | 14.5 | 0.00 | 0.00 | 0.97 | 99 | 1008.9 |
| 20260506193042 | 12 | 226 | 4.8 | 11.3 | 0.00 | 0.00 | 0.97 | 99 | 1008.8 |
| 20260506190953 | 12 | 193 | 4.8 | 11.3 | 0.00 | 0.00 | 0.91 | 100 | 1008.1 |
| 20260506185953 | 12 | 169 | 4.8 | 9.7 | 0.00 | 0.00 | 0.89 | 100 | 1007.9 |
| 20260506183952 | 12 | 188 | 4.8 | 11.3 | 0.00 | 0.00 | 0.86 | 99 | 1007.0 |
| 20260506183047 | 12 | 132 | 3.2 | 12.9 | 0.00 | 0.00 | 0.86 | 99 | 1006.4 |
| 20260506182951 | 12 | 132 | 3.2 | 12.9 | 0.00 | 0.00 | 0.86 | 99 | 1006.4 |
| 20260506182105 | 12 | 221 | 4.8 | 11.3 | 0.00 | 0.00 | 0.86 | 99 | 1006.0 |
| 20260506180951 | 12 | 225 | 3.2 | 8.0 | 0.00 | 0.00 | 0.86 | 100 | 1005.9 |
| 20260506175950 | 12 | 135 | 3.2 | 9.7 | 0.00 | 0.00 | 0.86 | 100 | 1005.8 |
| 20260506174950 | 12 | 215 | 3.2 | 11.3 | 0.00 | 0.00 | 0.86 | 100 | 1005.5 |
| 20260506173950 | 12 | 219 | 0.0 | 4.8 | 0.00 | 0.00 | 0.86 | 99 | 1005.1 |
| 20260506172950 | 12 | 10 | 1.6 | 8.0 | 0.00 | 0.00 | 0.86 | 100 | 1004.7 |
| 20260506171949 | 12 | 354 | 8.0 | 17.7 | 0.00 | 0.00 | 0.86 | 100 | 1004.3 |
| 20260506165948 | 12 | 330 | 8.0 | 19.3 | 0.00 | 0.00 | 0.81 | 99 | 1004.4 |
| 20260506161947 | 21 | 359 | 4.8 | 9.7 | 0.00 | 0.00 | 0.00 | 63 | 1000.9 |
| 20260506160946 | 21 | 353 | 8.0 | 14.5 | 0.00 | 0.00 | 0.00 | 65 | 1001.5 |
| 20260506155946 | 21 | 18 | 9.7 | 16.1 | 0.00 | 0.00 | 0.00 | 61 | 1001.5 |
| 20260506154946 | 22 | 10 | 6.4 | 12.9 | 0.00 | 0.00 | 0.00 | 60 | 1001.4 |
| 20260506153945 | 22 | 8 | 4.8 | 16.1 | 0.00 | 0.00 | 0.00 | 59 | 1001.6 |
| 20260506152945 | 22 | 24 | 11.3 | 27.4 | 0.00 | 0.00 | 0.00 | 59 | 1001.7 |
| 20260506151944 | 22 | 10 | 8.0 | 17.7 | 0.00 | 0.00 | 0.00 | 60 | 1001.8 |
| 20260506145944 | 22 | 21 | 12.9 | 20.9 | 0.00 | 0.00 | 0.00 | 59 | 1002.0 |
| 20260506143943 | 23 | 23 | 8.0 | 25.7 | 0.00 | 0.00 | 0.00 | 59 | 1002.4 |
| 20260506142943 | 23 | 25 | 9.7 | 17.7 | 0.00 | 0.00 | 0.00 | 59 | 1002.5 |
| 20260506140942 | 23 | 38 | 12.9 | 24.1 | 0.00 | 0.00 | 0.00 | 57 | 1002.6 |
| 20260506135942 | 23 | 58 | 6.4 | 17.7 | 0.00 | 0.00 | 0.00 | 58 | 1002.8 |
| 20260506134942 | 22 | 10 | 9.7 | 20.9 | 0.00 | 0.00 | 0.00 | 60 | 1002.9 |
| 20260506133941 | 22 | 311 | 11.3 | 20.9 | 0.00 | 0.00 | 0.00 | 63 | 1002.9 |
| 20260506132940 | 22 | 8 | 9.7 | 17.7 | 0.00 | 0.00 | 0.00 | 61 | 1003.2 |
| 20260506131940 | 22 | 17 | 11.3 | 22.5 | 0.00 | 0.00 | 0.00 | 62 | 1003.3 |
| 20260506130940 | 21 | 314 | 9.7 | 22.5 | 0.00 | 0.00 | 0.00 | 67 | 1003.4 |
| 20260506125939 | 21 | 329 | 11.3 | 25.7 | 0.00 | 0.00 | 0.00 | 67 | 1003.6 |
| 20260506123939 | 22 | 4 | 9.7 | 17.7 | 0.00 | 0.00 | 0.00 | 64 | 1003.7 |
| 20260506122938 | 22 | 288 | 8.0 | 16.1 | 0.00 | 0.00 | 0.00 | 63 | 1003.8 |
| 20260506121938 | 23 | 288 | 8.0 | 25.7 | 0.00 | 0.00 | 0.00 | 60 | 1003.8 |
| 20260506120937 | 23 | 23 | 6.4 | 11.3 | 0.00 | 0.00 | 0.00 | 53 | 1003.9 |
| 20260506115937 | 23 | 21 | 4.8 | 12.9 | 0.00 | 0.00 | 0.00 | 56 | 1004.1 |
| 20260506113937 | 23 | 359 | 3.2 | 12.9 | 0.00 | 0.00 | 0.00 | 53 | 1004.4 |
| 20260506112936 | 23 | 23 | 4.8 | 16.1 | 0.00 | 0.00 | 0.00 | 54 | 1004.6 |
| 20260506111936 | 22 | 20 | 3.2 | 8.0 | 0.00 | 0.00 | 0.00 | 53 | 1004.8 |
| 20260506110936 | 22 | 0 | 3.2 | 8.0 | 0.00 | 0.00 | 0.00 | 55 | 1004.9 |
| 20260506104935 | 21 | 4 | 4.8 | 11.3 | 0.00 | 0.00 | 0.00 | 57 | 1005.4 |
| 20260506103934 | 21 | 187 | 4.8 | 16.1 | 0.00 | 0.00 | 0.00 | 56 | 1005.6 |
| 20260506102934 | 21 | 25 | 8.0 | 19.3 | 0.00 | 0.00 | 0.00 | 56 | 1005.6 |
| 20260506101934 | 21 | 32 | 6.4 | 14.5 | 0.00 | 0.00 | 0.00 | 59 | 1005.6 |
| 20260506100933 | 21 | 31 | 8.0 | 12.9 | 0.00 | 0.00 | 0.00 | 63 | 1005.7 |
| 20260506095933 | 20 | 20 | 4.8 | 14.5 | 0.00 | 0.00 | 0.00 | 65 | 1005.8 |
| 20260506094932 | 20 | 214 | 8.0 | 16.1 | 0.00 | 0.00 | 0.00 | 64 | 1006.0 |
| 20260506093932 | 20 | 288 | 8.0 | 14.5 | 0.00 | 0.00 | 0.00 | 69 | 1006.0 |
| 20260506092932 | 18 | 15 | 8.0 | 16.1 | 0.00 | 0.00 | 0.00 | 72 | 1006.0 |
| 20260506091931 | 19 | 288 | 8.0 | 14.5 | 0.00 | 0.00 | 0.00 | 69 | 1006.1 |
| 20260506090931 | 20 | 288 | 6.4 | 14.5 | 0.00 | 0.00 | 0.00 | 67 | 1006.0 |
| 20260506085931 | 20 | 11 | 8.0 | 16.1 | 0.00 | 0.00 | 0.00 | 70 | 1006.0 |
| 20260506083930 | 19 | 333 | 9.7 | 16.1 | 0.00 | 0.00 | 0.00 | 66 | 1006.2 |
| 20260506081929 | 20 | 27 | 6.4 | 11.3 | 0.00 | 0.00 | 0.00 | 63 | 1006.2 |
| 20260506080929 | 20 | 353 | 4.8 | 12.9 | 0.00 | 0.00 | 0.00 | 62 | 1006.3 |
| 20260506072928 | 23 | 203 | 0.0 | 4.8 | 0.00 | 0.00 | 0.00 | 58 | 1006.6 |
| 20260506071927 | 22 | 0 | 0.0 | 0.0 | 0.00 | 0.00 | 0.00 | 65 | 1006.7 |
| 20260506070927 | 21 | 188 | 0.0 | 1.6 | 0.00 | 0.00 | 0.00 | 71 | 1006.9 |